Regional Weather Roundup
Issued by NWS Columbia, SC

Home | Current Version | Previous Version | Text Only | Print | Product List | Glossary On
Versions: 1 2 3 4 5 6 7 8 9 10 11 12 13 14 15 16 17 18 19 20 21 22 23 24 25 26 27 28 29 30 31 32 33 34 35 36 37 38 39
000
ASUS42 KCAE 251310
RWRCAE
REGIONAL WEATHER ROUNDUP
NATIONAL WEATHER SERVICE COLUMBIA SC
800 AM EST THU DEC 25 2014

NOTE: "FAIR" INDICATES FEW OR NO CLOUDS BELOW 12,000 FEET WITH NO
SIGNIFICANT WEATHER AND/OR OBSTRUCTIONS TO VISIBILITY.

NOT ALL STATIONS ARE QUALITY CONTROLLED BY THE NATIONAL
WEATHER SERVICE. USE DATA WITH CAUTION...ESPECIALLY
DEWPOINT OBSERVATIONS.

SCZ001>056-GAZ040-063>065-077-251400-
...UPSTATE SOUTH CAROLINA...

CITY           SKY/WX    TMP DP  RH WIND       PRES   REMARKS
ANDERSON       CLEAR     43  33  68 W10       30.05R
LIBERTY        FAIR      40  39  95 W6        30.03R
SPARTANBURG    FAIR      43  41  93 W6        30.02R
CLEMSON        CLEAR     42  29  59 W12       30.04R
GREENVILLE     CLEAR     42  34  73 W6        30.03R
GREENWOOD      MOCLDY    44  36  73 W10       30.07R
GREER          PTCLDY    42  37  82 W3        30.01R
ROCK HILL      CLOUDY    46  40  79 W6        30.01R
CHESTER        FAIR      48  41  76 SW3       30.02R
LAURENS        FAIR      45  41  87 W6        30.03R


...CENTRAL SOUTH CAROLINA...

CITY           SKY/WX    TMP DP  RH WIND       PRES   REMARKS
COLUMBIA APT   CLOUDY    50  38  63 W12       30.04R
COLUMBIA OWENS CLOUDY    50  38  63 W10       30.05R
DARLINGTON     CLOUDY    50  39  66 W12G18    30.02R
FLORENCE       CLOUDY    52  42  69 W12       30.01R
MCENTIRE ANGB  CLOUDY    49  40  70 W14       30.03R
ORANGEBURG     CLOUDY    51  41  68 W13       30.06R
SUMTER SHAW    CLOUDY    50  41  71 W12       30.01R
NEWBERRY       FAIR      45  37  76 W8        30.07R
AIKEN          FAIR      46  39  76 SW10      30.10R
BARNWELL       FAIR      50  39  66 W10G17    30.09R
MANNING        FAIR      52  43  71 W8        30.04R
CAMDEN         FAIR      48  39  71 W9        30.04R
LANCASTER      FAIR      46  45  93 W8        30.02R
WINNSBORO      FAIR      46  41  81 W7        30.02R


...EASTERN AND COASTAL SOUTH CAROLINA...

CITY           SKY/WX    TMP DP  RH WIND       PRES   REMARKS
MYRTLE BEACH   CLOUDY    54  41  62 W12       30.01R
N MYRTLE BCH   CLOUDY    54  42  64 W12       29.99R
CONWAY         FAIR      52  43  71 W5        30.00R
MARION         FAIR      52  41  66 W9        30.01R
HARTSVILLE     FAIR      50  39  66 W5        30.01R
FLORENCE       CLOUDY    52  42  69 W12       30.01R
DARLINGTON     CLOUDY    50  39  66 W12G18    30.02R
CHARLESTON APT CLOUDY    53  43  68 W10       30.06R
MOUNT PLEASANT PTSUNNY   54  43  66 W9        30.05R
WALTERBORO     CLOUDY    52  41  66 W7        30.08R
BEAUFORT       CLOUDY    53  44  71 W8        30.07R


...EASTERN GEORGIA...

CITY           SKY/WX    TMP DP  RH WIND       PRES   REMARKS
AUGUSTA BUSH F CLOUDY    48  35  60 W9        30.10R
AUGUSTA DANIEL CLOUDY    48  35  60 VRB7G17   30.10R
THOMSON        CLOUDY    47  39  75 W9        30.15R
WASHINGTON     FAIR      45  41  87 W7        30.09R
CLAXTON        FAIR      50  45  81 NW8       30.11R
SYLVANIA       CLOUDY    50  42  74 NW15      30.10R
STATESBORO     CLOUDY    50  45  84 NW9       30.10S
SAVANNAH       CLOUDY    52  43  71 W8        30.10R


...SOUTHERN NORTH CAROLINA...

CITY           SKY/WX    TMP DP  RH WIND       PRES   REMARKS
CHARLOTTE      CLOUDY    46  41  82 W5        30.00R
MONROE         CLOUDY    47  39  74 W8        29.98R
WADESBORO      CLOUDY    50  43  77 W3        30.00R
ROCKINGHAM     CLOUDY    49  43  81 W9        29.99R
RUTHERFORDTON  CLEAR     42  31  64 N3        30.02R
ASHEVILLE      CLEAR     37  27  67 N17G26    30.02R WCI  27

$$


USA.gov is the U.S. government's official web portal to all federal, state and local government web resources and services.